Weather in Zaozerny

Russia / Tyumen Oblast     56°19′32″N   69°30′49″E
temp.,
°C
wind,
m/s
gust,
m/s
humid.,
%
clouds,
%
prec.,
mm/h
press.,
hPa
HPBL,
m
17 april, sat
sat1723:00+2nne38660 0.0 1027229
02:000ene35815 0.0 1027166
05:00−1ese23815 0.0 1028102
08:00+1s22645 0.0 1028437
11:00+5wsw34481 0.0 10261144
14:00+7wsw56385 0.0 10241619
17:00+8w683993 0.0 10211868
20:00+5sw41058100 0.0 1019221
18 april, sun
sun1823:00+5wsw5126699 0.0 1017277
02:00+4wsw51269100 0.0 1014261
05:00+3w61372100 0.0 1011366
08:00+5wnw81272100 0.0 1010934
11:000nnw111455100 0.3 10141056
14:00+1n111347100 0.0 10191848
17:000n91236100 0.0 10232068
20:00−3n810455 0.0 10261425
19 april, mon
mon1923:00−5n784814 0.0 10291404
02:00−6n684797 0.0 10311355
05:00−7n574879 0.0 10331305
08:00−6n674076 0.0 10351409
11:00−4n6732100 0.0 10351792
14:00−1n5729100 0.0 10342164
17:00−1n5629100 0.0 10342187
20:00−3nnw22425 0.0 103527
20 april, tue
tue2023:00−4nw23470 0.0 103547
02:00−4wnw234515 0.0 103575
05:00−4w38475 0.0 1034222
08:00−1w693578 0.0 1033688
11:00+4w8103066 0.0 10301425
14:00+6w911325 0.0 10271648
17:00+7wnw7113941 0.0 10261674
20:00+5wnw6125189 0.0 1025332
21 april, wed
wed2123:00+3w6146093 0.0 1024367
02:00+3wnw61465100 0.0 1023405
05:00+2nw6138050 0.0 1024361
08:00+4nnw7107394 0.0 10261069
11:00+6n7105012 0.0 10271390
14:00+7n79405 0.0 10291571
17:00+7nne78365 0.0 10321662
20:00+3ne48480 0.0 1035280